Find Starlink 30944

NORAD ID: 58451 Int'l Des: 2023-183 Owner: SPXS Country: US Constellation: starlink operational
LEOCIRCULAR

リアルタイム位置

3D地球を読み込み中...

Starlink 30944について

説明を読み込み中...

次回通過

Passes for default location (London). Set your location on the main map for personalized predictions.

高度履歴

Loading altitude history...

軌道要素

1 58451U 23183Q 26125.88802878 .00001388 00000-0 59935-4 0 9990
2 58451 43.0000 78.4587 0001202 260.0607 100.0109 15.27582749135456
Epoch: May 5, 2026 • Age: 8 hours

現在のステータス

高度 494.1 km
速度 7.62 km/s
衛星直下点 -39.27°S, 78.98°E
打ち上げ日 Nov 28, 2023
運用期間 2.4 years
タイプ internet

技術仕様

分類 Payload
質量 730.00 kg
乾燥質量 700.00 kg
総質量 730.00 kg
長さ 0.30 m
直径 4.10 m
スパン 29.00 m
形状 Box + pan
製造者 SPXS
バスタイプ Starlink V2M
フェーズステータス In Orbit
所有者/国 SPXS/US

Most Searched